Year,Month,Day,Hour,Minute,Value (Times are PST for temperature in C)
2018,09,17,00,00,10.40
2018,09,17,00,01,10.40
2018,09,17,00,02,10.40
2018,09,17,00,03,10.40
2018,09,17,00,04,10.30
2018,09,17,00,05,10.30
2018,09,17,00,06,10.30
2018,09,17,00,07,10.30
2018,09,17,00,08,10.20
2018,09,17,00,09,10.20
2018,09,17,00,10,10.20
2018,09,17,00,11,10.10
2018,09,17,00,12,10.10
2018,09,17,00,13,10.00
2018,09,17,00,14,10.00
2018,09,17,00,15,9.90
2018,09,17,00,16,9.90
2018,09,17,00,17,9.90
2018,09,17,00,18,9.90
2018,09,17,00,19,9.90
2018,09,17,00,20,9.90
2018,09,17,00,21,9.90
2018,09,17,00,22,9.90
2018,09,17,00,23,9.90
2018,09,17,00,24,9.90
2018,09,17,00,25,9.90
2018,09,17,00,26,9.90
2018,09,17,00,27,10.00
2018,09,17,00,28,10.00
2018,09,17,00,29,10.00
2018,09,17,00,30,10.10
2018,09,17,00,31,10.10
2018,09,17,00,32,10.20
2018,09,17,00,33,10.30
2018,09,17,00,34,10.40
2018,09,17,00,35,10.50
2018,09,17,00,36,10.60
2018,09,17,00,37,10.70
2018,09,17,00,38,10.70
2018,09,17,00,39,10.80
2018,09,17,00,40,10.80
2018,09,17,00,41,10.90
2018,09,17,00,42,11.00
2018,09,17,00,43,11.00
2018,09,17,00,44,11.10
2018,09,17,00,45,11.10
2018,09,17,00,46,11.10
2018,09,17,00,47,11.20
2018,09,17,00,48,11.20
2018,09,17,00,49,11.20
2018,09,17,00,50,11.20
2018,09,17,00,51,11.20
2018,09,17,00,52,11.20
2018,09,17,00,53,11.20
2018,09,17,00,54,11.20
2018,09,17,00,55,11.20
2018,09,17,00,56,11.20
2018,09,17,00,57,11.10
2018,09,17,00,58,11.10
2018,09,17,00,59,11.10
2018,09,17,01,00,11.10
2018,09,17,01,01,11.10
2018,09,17,01,02,11.10
2018,09,17,01,03,11.10
2018,09,17,01,04,11.10
2018,09,17,01,05,11.10
2018,09,17,01,06,11.10
2018,09,17,01,07,11.10
2018,09,17,01,08,11.10
2018,09,17,01,09,11.10
2018,09,17,01,10,11.10
2018,09,17,01,11,11.10
2018,09,17,01,12,11.00
2018,09,17,01,13,11.00
2018,09,17,01,14,10.90
2018,09,17,01,15,10.90
2018,09,17,01,16,10.90
2018,09,17,01,17,10.80
2018,09,17,01,18,10.80
2018,09,17,01,19,10.80
2018,09,17,01,20,10.70
2018,09,17,01,21,10.70
2018,09,17,01,22,10.60
2018,09,17,01,23,10.50
2018,09,17,01,24,10.40
2018,09,17,01,25,10.30
2018,09,17,01,26,10.30
2018,09,17,01,27,10.20
2018,09,17,01,28,10.10
2018,09,17,01,29,10.10
2018,09,17,01,30,10.00
2018,09,17,01,31,10.00
2018,09,17,01,32,9.90
2018,09,17,01,33,9.80
2018,09,17,01,34,9.80
2018,09,17,01,35,9.70
2018,09,17,01,36,9.70
2018,09,17,01,37,9.60
2018,09,17,01,38,9.60
2018,09,17,01,39,9.50
2018,09,17,01,40,9.40
2018,09,17,01,41,9.40
2018,09,17,01,42,9.30
2018,09,17,01,43,9.30
2018,09,17,01,44,9.20
2018,09,17,01,45,9.20
2018,09,17,01,46,9.20
2018,09,17,01,47,9.10
2018,09,17,01,48,9.10
2018,09,17,01,49,9.10
2018,09,17,01,50,9.00
2018,09,17,01,51,9.00
2018,09,17,01,52,8.90
2018,09,17,01,53,8.90
2018,09,17,01,54,8.90
2018,09,17,01,55,8.90
2018,09,17,01,56,8.80
2018,09,17,01,57,8.80
2018,09,17,01,58,8.80
2018,09,17,01,59,8.80
2018,09,17,02,00,8.70
2018,09,17,02,01,8.70
2018,09,17,02,02,8.70
2018,09,17,02,03,8.70
2018,09,17,02,04,8.70
2018,09,17,02,05,8.70
2018,09,17,02,06,8.60
2018,09,17,02,07,8.60
2018,09,17,02,08,8.60
2018,09,17,02,09,8.60
2018,09,17,02,10,8.60
2018,09,17,02,11,8.60
2018,09,17,02,12,8.60
2018,09,17,02,13,8.50
2018,09,17,02,14,8.50
2018,09,17,02,15,8.50
2018,09,17,02,16,8.40
2018,09,17,02,17,8.40
2018,09,17,02,18,8.40
2018,09,17,02,19,8.40
2018,09,17,02,20,8.40
2018,09,17,02,21,8.40
2018,09,17,02,22,8.40
2018,09,17,02,23,8.40
2018,09,17,02,24,8.40
2018,09,17,02,25,8.30
2018,09,17,02,26,8.30
2018,09,17,02,27,8.30
2018,09,17,02,28,8.30
2018,09,17,02,29,8.30
2018,09,17,02,30,8.30
2018,09,17,02,31,8.20
2018,09,17,02,32,8.20
2018,09,17,02,33,8.20
2018,09,17,02,34,8.20
2018,09,17,02,35,8.10
2018,09,17,02,36,8.10
2018,09,17,02,37,8.10
2018,09,17,02,38,8.10
2018,09,17,02,39,8.00
2018,09,17,02,40,8.00
2018,09,17,02,41,7.90
2018,09,17,02,42,7.90
2018,09,17,02,43,7.90
2018,09,17,02,44,7.90
2018,09,17,02,45,7.80
2018,09,17,02,46,7.80
2018,09,17,02,47,7.80
2018,09,17,02,48,7.80
2018,09,17,02,49,7.80
2018,09,17,02,50,7.80
2018,09,17,02,51,7.80
2018,09,17,02,52,7.80
2018,09,17,02,53,7.80
2018,09,17,02,54,7.70
2018,09,17,02,55,7.70
2018,09,17,02,56,7.70
2018,09,17,02,57,7.70
2018,09,17,02,58,7.70
2018,09,17,02,59,7.70
2018,09,17,03,00,7.60
2018,09,17,03,01,7.60
2018,09,17,03,02,7.60
2018,09,17,03,03,7.60
2018,09,17,03,04,7.60
2018,09,17,03,05,7.60
2018,09,17,03,06,7.60
2018,09,17,03,07,7.60
2018,09,17,03,08,7.60
2018,09,17,03,09,7.60
2018,09,17,03,10,7.60
2018,09,17,03,11,7.60
2018,09,17,03,12,7.60
2018,09,17,03,13,7.60
2018,09,17,03,14,7.50
2018,09,17,03,15,7.50
2018,09,17,03,16,7.50
2018,09,17,03,17,7.50
2018,09,17,03,18,7.50
2018,09,17,03,19,7.40
2018,09,17,03,20,7.40
2018,09,17,03,21,7.40
2018,09,17,03,22,7.40
2018,09,17,03,23,7.40
2018,09,17,03,24,7.40
2018,09,17,03,25,7.30
2018,09,17,03,26,7.30
2018,09,17,03,27,7.30
2018,09,17,03,28,7.30
2018,09,17,03,29,7.30
2018,09,17,03,30,7.30
2018,09,17,03,31,7.20
2018,09,17,03,32,7.20
2018,09,17,03,33,7.20
2018,09,17,03,34,7.20
2018,09,17,03,35,7.20
2018,09,17,03,36,7.20
2018,09,17,03,37,7.20
2018,09,17,03,38,7.20
2018,09,17,03,39,7.20
2018,09,17,03,40,7.10
2018,09,17,03,41,7.10
2018,09,17,03,42,7.10
2018,09,17,03,43,7.10
2018,09,17,03,44,7.10
2018,09,17,03,45,7.10
2018,09,17,03,46,7.10
2018,09,17,03,47,7.00
2018,09,17,03,48,7.00
2018,09,17,03,49,7.00
2018,09,17,03,50,7.00
2018,09,17,03,51,7.00
2018,09,17,03,52,7.00
2018,09,17,03,53,7.00
2018,09,17,03,54,7.00
2018,09,17,03,55,7.00
2018,09,17,03,56,7.00
2018,09,17,03,57,6.90
2018,09,17,03,58,6.90
2018,09,17,03,59,6.90
2018,09,17,04,00,6.90
2018,09,17,04,01,6.90
2018,09,17,04,02,6.90
2018,09,17,04,03,6.90
2018,09,17,04,04,6.90
2018,09,17,04,05,6.90
2018,09,17,04,06,6.90
2018,09,17,04,07,6.90
2018,09,17,04,08,6.90
2018,09,17,04,09,6.90
2018,09,17,04,10,6.90
2018,09,17,04,11,6.80
2018,09,17,04,12,6.80
2018,09,17,04,13,6.80
2018,09,17,04,14,6.80
2018,09,17,04,15,6.80
2018,09,17,04,16,6.80
2018,09,17,04,17,6.80
2018,09,17,04,18,6.80
2018,09,17,04,19,6.80
2018,09,17,04,20,6.80
2018,09,17,04,21,6.80
2018,09,17,04,22,6.80
2018,09,17,04,23,6.80
2018,09,17,04,24,6.80
2018,09,17,04,25,6.80
2018,09,17,04,26,6.80
2018,09,17,04,27,6.80
2018,09,17,04,28,6.80
2018,09,17,04,29,6.80
2018,09,17,04,30,6.80
2018,09,17,04,31,6.80
2018,09,17,04,32,6.80
2018,09,17,04,33,6.80
2018,09,17,04,34,6.70
2018,09,17,04,35,6.70
2018,09,17,04,36,6.70
2018,09,17,04,37,6.70
2018,09,17,04,38,6.70
2018,09,17,04,39,6.70
2018,09,17,04,40,6.70
2018,09,17,04,41,6.70
2018,09,17,04,42,6.70
2018,09,17,04,43,6.70
2018,09,17,04,44,6.70
2018,09,17,04,45,6.70
2018,09,17,04,46,6.70
2018,09,17,04,47,6.60
2018,09,17,04,48,6.60
2018,09,17,04,49,6.60
2018,09,17,04,50,6.60
2018,09,17,04,51,6.60
2018,09,17,04,52,6.50
2018,09,17,04,53,6.50
2018,09,17,04,54,6.50
2018,09,17,04,55,6.50
2018,09,17,04,56,6.50
2018,09,17,04,57,6.50
2018,09,17,04,58,6.50
2018,09,17,04,59,6.50
2018,09,17,05,00,6.50
2018,09,17,05,01,6.50
2018,09,17,05,02,6.50
2018,09,17,05,03,6.40
2018,09,17,05,04,6.40
2018,09,17,05,05,6.40
2018,09,17,05,06,6.40
2018,09,17,05,07,6.40
2018,09,17,05,08,6.40
2018,09,17,05,09,6.40
2018,09,17,05,10,6.40
2018,09,17,05,11,6.40
2018,09,17,05,12,6.40
2018,09,17,05,13,6.40
2018,09,17,05,14,6.40
2018,09,17,05,15,6.40
2018,09,17,05,16,6.30
2018,09,17,05,17,6.30
2018,09,17,05,18,6.30
2018,09,17,05,19,6.30
2018,09,17,05,20,6.30
2018,09,17,05,21,6.30
2018,09,17,05,22,6.20
2018,09,17,05,23,6.20
2018,09,17,05,24,6.20
2018,09,17,05,25,6.20
2018,09,17,05,26,6.20
2018,09,17,05,27,6.20
2018,09,17,05,28,6.20
2018,09,17,05,29,6.20
2018,09,17,05,30,6.20
2018,09,17,05,31,6.20
2018,09,17,05,32,6.20
2018,09,17,05,33,6.20
2018,09,17,05,34,6.20
2018,09,17,05,35,6.20
2018,09,17,05,36,6.20
2018,09,17,05,37,6.20
2018,09,17,05,38,6.10
2018,09,17,05,39,6.10
2018,09,17,05,40,6.10
2018,09,17,05,41,6.10
2018,09,17,05,42,6.10
2018,09,17,05,43,6.10
2018,09,17,05,44,6.10
2018,09,17,05,45,6.10
2018,09,17,05,46,6.00
2018,09,17,05,47,6.00
2018,09,17,05,48,6.00
2018,09,17,05,49,6.00
2018,09,17,05,50,6.00
2018,09,17,05,51,5.90
2018,09,17,05,52,5.90
2018,09,17,05,53,5.90
2018,09,17,05,54,5.90
2018,09,17,05,55,5.90
2018,09,17,05,56,5.90
2018,09,17,05,57,5.90
2018,09,17,05,58,5.90
2018,09,17,05,59,5.90
2018,09,17,06,00,5.90
2018,09,17,06,01,5.90
2018,09,17,06,02,5.90
2018,09,17,06,03,5.90
2018,09,17,06,04,5.90
2018,09,17,06,05,5.80
2018,09,17,06,06,5.80
2018,09,17,06,07,5.80
2018,09,17,06,08,5.80
2018,09,17,06,09,5.80
2018,09,17,06,10,5.80
2018,09,17,06,11,5.70
2018,09,17,06,12,5.70
2018,09,17,06,13,5.70
2018,09,17,06,14,5.70
2018,09,17,06,15,5.70
2018,09,17,06,16,5.70
2018,09,17,06,17,5.70
2018,09,17,06,18,5.70
2018,09,17,06,19,5.70
2018,09,17,06,20,5.70
2018,09,17,06,21,5.70
2018,09,17,06,22,5.70
2018,09,17,06,23,5.70
2018,09,17,06,24,5.70
2018,09,17,06,25,5.70
2018,09,17,06,26,5.70
2018,09,17,06,27,5.70
2018,09,17,06,28,5.70
2018,09,17,06,29,5.60
2018,09,17,06,30,5.60
2018,09,17,06,31,5.60
2018,09,17,06,32,5.60
2018,09,17,06,33,5.60
2018,09,17,06,34,5.60
2018,09,17,06,35,5.50
2018,09,17,06,36,5.50
2018,09,17,06,37,5.50
2018,09,17,06,38,5.50
2018,09,17,06,39,5.50
2018,09,17,06,40,5.50
2018,09,17,06,41,5.60
2018,09,17,06,42,5.60
2018,09,17,06,43,5.60
2018,09,17,06,44,5.60
2018,09,17,06,45,5.60
2018,09,17,06,46,5.60
2018,09,17,06,47,5.60
2018,09,17,06,48,5.60
2018,09,17,06,49,5.60
2018,09,17,06,50,5.60
2018,09,17,06,51,5.60
2018,09,17,06,52,5.60
2018,09,17,06,53,5.60
2018,09,17,06,54,5.60
2018,09,17,06,55,5.60
2018,09,17,06,56,5.50
2018,09,17,06,57,5.50
2018,09,17,06,58,5.50
2018,09,17,06,59,5.50
2018,09,17,07,00,5.40
2018,09,17,07,01,5.40
2018,09,17,07,02,5.40
2018,09,17,07,03,5.40
2018,09,17,07,04,5.40
2018,09,17,07,05,5.30
2018,09,17,07,06,5.30
2018,09,17,07,07,5.30
2018,09,17,07,08,5.30
2018,09,17,07,09,5.30
2018,09,17,07,10,5.30
2018,09,17,07,11,5.30
2018,09,17,07,12,5.30
2018,09,17,07,13,5.30
2018,09,17,07,14,5.40
2018,09,17,07,15,5.40
2018,09,17,07,16,5.40
2018,09,17,07,17,5.40
2018,09,17,07,18,5.40
2018,09,17,07,19,5.40
2018,09,17,07,20,5.40
2018,09,17,07,21,5.40
2018,09,17,07,22,5.40
2018,09,17,07,23,5.40
2018,09,17,07,24,5.40
2018,09,17,07,25,5.40
2018,09,17,07,26,5.50
2018,09,17,07,27,5.50
2018,09,17,07,28,5.50
2018,09,17,07,29,5.50
2018,09,17,07,30,5.50
2018,09,17,07,31,5.50
2018,09,17,07,32,5.50
2018,09,17,07,33,5.60
2018,09,17,07,34,5.60
2018,09,17,07,35,5.60
2018,09,17,07,36,5.60
2018,09,17,07,37,5.60
2018,09,17,07,38,5.60
2018,09,17,07,39,5.60
2018,09,17,07,40,5.60
2018,09,17,07,41,5.60
2018,09,17,07,42,5.60
2018,09,17,07,43,5.60
2018,09,17,07,44,5.60
2018,09,17,07,45,5.60
2018,09,17,07,46,5.70
2018,09,17,07,47,5.70
2018,09,17,07,48,5.80
2018,09,17,07,49,5.90
2018,09,17,07,50,6.00
2018,09,17,07,51,6.10
2018,09,17,07,52,6.20
2018,09,17,07,53,6.30
2018,09,17,07,54,6.40
2018,09,17,07,55,6.50
2018,09,17,07,56,6.60
2018,09,17,07,57,6.70
2018,09,17,07,58,6.70
2018,09,17,07,59,6.70
2018,09,17,08,00,6.80
2018,09,17,08,01,6.80
2018,09,17,08,02,6.80
2018,09,17,08,03,6.80
2018,09,17,08,04,6.80
2018,09,17,08,05,6.80
2018,09,17,08,06,6.90
2018,09,17,08,07,6.90
2018,09,17,08,08,6.90
2018,09,17,08,09,6.90
2018,09,17,08,10,7.00
2018,09,17,08,11,7.00
2018,09,17,08,12,7.00
2018,09,17,08,13,7.00
2018,09,17,08,14,7.10
2018,09,17,08,15,7.10
2018,09,17,08,16,7.10
2018,09,17,08,17,7.10
2018,09,17,08,18,7.20
2018,09,17,08,19,7.20
2018,09,17,08,20,7.20
2018,09,17,08,21,7.30
2018,09,17,08,22,7.30
2018,09,17,08,23,7.40
2018,09,17,08,24,7.50
2018,09,17,08,25,7.60
2018,09,17,08,26,7.70
2018,09,17,08,27,7.80
2018,09,17,08,28,7.90
2018,09,17,08,29,8.00
2018,09,17,08,30,8.10
2018,09,17,08,31,8.10
2018,09,17,08,32,8.20
2018,09,17,08,33,8.30
2018,09,17,08,34,8.40
2018,09,17,08,35,8.40
2018,09,17,08,36,8.50
2018,09,17,08,37,8.60
2018,09,17,08,38,8.70
2018,09,17,08,39,8.80
2018,09,17,08,40,8.80
2018,09,17,08,41,8.90
2018,09,17,08,42,9.00
2018,09,17,08,43,9.10
2018,09,17,08,44,9.10
2018,09,17,08,45,9.20
2018,09,17,08,46,9.20
2018,09,17,08,47,9.30
2018,09,17,08,48,9.40
2018,09,17,08,49,9.50
2018,09,17,08,50,9.60
2018,09,17,08,51,9.70
2018,09,17,08,52,9.80
2018,09,17,08,53,10.00
2018,09,17,08,54,10.10
2018,09,17,08,55,10.20
2018,09,17,08,56,10.30
2018,09,17,08,57,10.40
2018,09,17,08,58,10.40
2018,09,17,08,59,10.40
2018,09,17,09,00,10.50
2018,09,17,09,01,10.50
2018,09,17,09,02,10.60
2018,09,17,09,03,10.70
2018,09,17,09,04,10.80
2018,09,17,09,05,10.90
2018,09,17,09,06,11.00
2018,09,17,09,07,11.10
2018,09,17,09,08,11.20
2018,09,17,09,09,11.30
2018,09,17,09,10,11.40
2018,09,17,09,11,11.50
2018,09,17,09,12,11.60
2018,09,17,09,13,11.70
2018,09,17,09,14,11.80
2018,09,17,09,15,11.90
2018,09,17,09,16,12.10
2018,09,17,09,17,12.20
2018,09,17,09,18,12.20
2018,09,17,09,19,12.30
2018,09,17,09,20,12.30
2018,09,17,09,21,12.30
2018,09,17,09,22,12.40
2018,09,17,09,23,12.60
2018,09,17,09,24,12.60
2018,09,17,09,25,12.70
2018,09,17,09,26,12.80
2018,09,17,09,27,12.90
2018,09,17,09,28,13.00
2018,09,17,09,29,13.10
2018,09,17,09,30,13.20
2018,09,17,09,31,13.30
2018,09,17,09,32,13.30
2018,09,17,09,33,13.40
2018,09,17,09,34,13.40
2018,09,17,09,35,13.40
2018,09,17,09,36,13.50
2018,09,17,09,37,13.60
2018,09,17,09,38,13.70
2018,09,17,09,39,13.80
2018,09,17,09,40,13.80
2018,09,17,09,41,13.90
2018,09,17,09,42,13.80
2018,09,17,09,43,13.80
2018,09,17,09,44,13.80
2018,09,17,09,45,13.80
2018,09,17,09,46,13.80
2018,09,17,09,47,13.80
2018,09,17,09,48,13.90
2018,09,17,09,49,13.90
2018,09,17,09,50,14.00
2018,09,17,09,51,14.00
2018,09,17,09,52,14.00
2018,09,17,09,53,14.10
2018,09,17,09,54,14.10
2018,09,17,09,55,14.10
2018,09,17,09,56,14.20
2018,09,17,09,57,14.20
2018,09,17,09,58,14.20
2018,09,17,09,59,14.20
2018,09,17,10,00,14.30
2018,09,17,10,01,14.30
2018,09,17,10,02,14.40
2018,09,17,10,03,14.40
2018,09,17,10,04,14.50
2018,09,17,10,05,14.50
2018,09,17,10,06,14.60
2018,09,17,10,07,14.60
2018,09,17,10,08,14.70
2018,09,17,10,09,14.70
2018,09,17,10,10,14.70
2018,09,17,10,11,14.80
2018,09,17,10,12,14.80
2018,09,17,10,13,14.80
2018,09,17,10,14,14.90
2018,09,17,10,15,15.00
2018,09,17,10,16,15.00
2018,09,17,10,17,15.00
2018,09,17,10,18,15.00
2018,09,17,10,19,15.00
2018,09,17,10,20,15.00
2018,09,17,10,21,15.00
2018,09,17,10,22,15.10
2018,09,17,10,23,15.10
2018,09,17,10,24,15.10
2018,09,17,10,25,15.20
2018,09,17,10,26,15.10
2018,09,17,10,27,15.10
2018,09,17,10,28,15.10
2018,09,17,10,29,15.20
2018,09,17,10,30,15.20
2018,09,17,10,31,15.20
2018,09,17,10,32,15.20
2018,09,17,10,33,15.30
2018,09,17,10,34,15.30
2018,09,17,10,35,15.30
2018,09,17,10,36,15.40
2018,09,17,10,37,15.40
2018,09,17,10,38,15.40
2018,09,17,10,39,15.30
2018,09,17,10,40,15.40
2018,09,17,10,41,15.40
2018,09,17,10,42,15.40
2018,09,17,10,43,15.40
2018,09,17,10,44,15.40
2018,09,17,10,45,15.40
2018,09,17,10,46,15.40
2018,09,17,10,47,15.40
2018,09,17,10,48,15.40
2018,09,17,10,49,15.50
2018,09,17,10,50,15.50
2018,09,17,10,51,15.40
2018,09,17,10,52,15.20
2018,09,17,10,53,15.00
2018,09,17,10,54,15.00
2018,09,17,10,55,15.00
2018,09,17,10,56,15.20
2018,09,17,10,57,15.20
2018,09,17,10,58,15.30
2018,09,17,10,59,15.30
2018,09,17,11,00,15.20
2018,09,17,11,01,15.10
2018,09,17,11,02,15.00
2018,09,17,11,03,15.10
2018,09,17,11,04,15.20
2018,09,17,11,05,15.30
2018,09,17,11,06,15.30
2018,09,17,11,07,15.20
2018,09,17,11,08,15.20
2018,09,17,11,09,15.30
2018,09,17,11,10,15.30
2018,09,17,11,11,15.40
2018,09,17,11,12,15.40
2018,09,17,11,13,15.50
2018,09,17,11,14,15.60
2018,09,17,11,15,15.60
2018,09,17,11,16,15.70
2018,09,17,11,17,15.70
2018,09,17,11,18,15.70
2018,09,17,11,19,15.70
2018,09,17,11,20,15.70
2018,09,17,11,21,15.70
2018,09,17,11,22,15.70
2018,09,17,11,23,15.70
2018,09,17,11,24,15.80
2018,09,17,11,25,15.70
2018,09,17,11,26,15.70
2018,09,17,11,27,15.60
2018,09,17,11,28,15.60
2018,09,17,11,29,15.70
2018,09,17,11,30,15.70
2018,09,17,11,31,15.80
2018,09,17,11,32,15.70
2018,09,17,11,33,15.70
2018,09,17,11,34,15.60
2018,09,17,11,35,15.60
2018,09,17,11,36,15.70
2018,09,17,11,37,15.70
2018,09,17,11,38,15.70
2018,09,17,11,39,15.70
2018,09,17,11,40,15.70
2018,09,17,11,41,15.60
2018,09,17,11,42,15.60
2018,09,17,11,43,15.60
2018,09,17,11,44,15.60
2018,09,17,11,45,15.60
2018,09,17,11,46,15.60
2018,09,17,11,47,15.60
2018,09,17,11,48,15.60
2018,09,17,11,49,15.60
2018,09,17,11,50,15.70
2018,09,17,11,51,15.80
2018,09,17,11,52,15.80
2018,09,17,11,53,15.90
2018,09,17,11,54,16.00
2018,09,17,11,55,16.10
2018,09,17,11,56,16.20
2018,09,17,11,57,16.20
2018,09,17,11,58,16.10
2018,09,17,11,59,16.10
2018,09,17,12,00,16.10
2018,09,17,12,01,16.10
2018,09,17,12,02,16.10
2018,09,17,12,03,16.10
2018,09,17,12,04,16.10
2018,09,17,12,05,16.10
2018,09,17,12,06,16.20
2018,09,17,12,07,16.30
2018,09,17,12,08,16.50
2018,09,17,12,09,16.60
2018,09,17,12,10,16.70
2018,09,17,12,11,16.80
2018,09,17,12,12,16.80
2018,09,17,12,13,16.60
2018,09,17,12,14,16.60
2018,09,17,12,15,16.50
2018,09,17,12,16,16.40
2018,09,17,12,17,16.40
2018,09,17,12,18,16.40
2018,09,17,12,19,16.40
2018,09,17,12,20,16.40
2018,09,17,12,21,16.30
2018,09,17,12,22,16.20
2018,09,17,12,23,16.10
2018,09,17,12,24,16.20
2018,09,17,12,25,16.30
2018,09,17,12,26,16.40
2018,09,17,12,27,16.40
2018,09,17,12,28,16.50
2018,09,17,12,29,16.60
2018,09,17,12,30,16.60
2018,09,17,12,31,16.60
2018,09,17,12,32,16.60
2018,09,17,12,33,16.60
2018,09,17,12,34,16.70
2018,09,17,12,35,16.70
2018,09,17,12,36,16.80
2018,09,17,12,37,16.90
2018,09,17,12,38,17.00
2018,09,17,12,39,17.10
2018,09,17,12,40,17.10
2018,09,17,12,41,17.20
2018,09,17,12,42,17.20
2018,09,17,12,43,17.20
2018,09,17,12,44,17.20
2018,09,17,12,45,17.20
2018,09,17,12,46,17.20
2018,09,17,12,47,17.20
2018,09,17,12,48,17.20
2018,09,17,12,49,17.20
2018,09,17,12,50,17.20
2018,09,17,12,51,17.10
2018,09,17,12,52,17.00
2018,09,17,12,53,16.90
2018,09,17,12,54,16.90
2018,09,17,12,55,16.90
2018,09,17,12,56,16.90
2018,09,17,12,57,16.80
2018,09,17,12,58,16.80
2018,09,17,12,59,16.80
2018,09,17,13,00,16.90
2018,09,17,13,01,17.00
2018,09,17,13,02,17.00
2018,09,17,13,03,17.00
2018,09,17,13,04,16.90
2018,09,17,13,05,16.80
2018,09,17,13,06,16.70
2018,09,17,13,07,16.60
2018,09,17,13,08,16.50
2018,09,17,13,09,16.40
2018,09,17,13,10,16.50
2018,09,17,13,11,16.60
2018,09,17,13,12,16.70
2018,09,17,13,13,16.80
2018,09,17,13,14,16.80
2018,09,17,13,15,16.90
2018,09,17,13,16,17.00
2018,09,17,13,17,17.10
2018,09,17,13,18,17.10
2018,09,17,13,19,17.20
2018,09,17,13,20,17.20
2018,09,17,13,21,17.30
2018,09,17,13,22,17.30
2018,09,17,13,23,17.30
2018,09,17,13,24,17.10
2018,09,17,13,25,16.90
2018,09,17,13,26,16.80
2018,09,17,13,27,16.70
2018,09,17,13,28,16.60
2018,09,17,13,29,16.60
2018,09,17,13,30,16.50
2018,09,17,13,31,16.50
2018,09,17,13,32,16.40
2018,09,17,13,33,16.40
2018,09,17,13,34,16.40
2018,09,17,13,35,16.40
2018,09,17,13,36,16.40
2018,09,17,13,37,16.40
2018,09,17,13,38,16.50
2018,09,17,13,39,16.60
2018,09,17,13,40,16.70
2018,09,17,13,41,16.70
2018,09,17,13,42,16.70
2018,09,17,13,43,16.70
2018,09,17,13,44,16.70
2018,09,17,13,45,16.70
2018,09,17,13,46,16.60
2018,09,17,13,47,16.60
2018,09,17,13,48,16.60
2018,09,17,13,49,16.60
2018,09,17,13,50,16.60
2018,09,17,13,51,16.50
2018,09,17,13,52,16.50
2018,09,17,13,53,16.60
2018,09,17,13,54,16.60
2018,09,17,13,55,16.70
2018,09,17,13,56,16.80
2018,09,17,13,57,16.80
2018,09,17,13,58,16.80
2018,09,17,13,59,16.80
2018,09,17,14,00,16.80
2018,09,17,14,01,16.80
2018,09,17,14,02,16.90
2018,09,17,14,03,16.90
2018,09,17,14,04,17.00
2018,09,17,14,05,17.10
2018,09,17,14,06,17.20
2018,09,17,14,07,17.10
2018,09,17,14,08,17.10
2018,09,17,14,09,17.10
2018,09,17,14,10,17.10
2018,09,17,14,11,17.10
2018,09,17,14,12,17.00
2018,09,17,14,13,17.00
2018,09,17,14,14,17.00
2018,09,17,14,15,16.90
2018,09,17,14,16,16.90
2018,09,17,14,17,16.90
2018,09,17,14,18,16.90
2018,09,17,14,19,16.90
2018,09,17,14,20,17.00
2018,09,17,14,21,17.10
2018,09,17,14,22,17.10
2018,09,17,14,23,17.10
2018,09,17,14,24,17.10
2018,09,17,14,25,17.10
2018,09,17,14,26,17.10
2018,09,17,14,27,17.10
2018,09,17,14,28,17.20
2018,09,17,14,29,17.30
2018,09,17,14,30,17.30
2018,09,17,14,31,17.30
2018,09,17,14,32,17.20
2018,09,17,14,33,17.10
2018,09,17,14,34,17.10
2018,09,17,14,35,17.10
2018,09,17,14,36,17.10
2018,09,17,14,37,17.00
2018,09,17,14,38,17.00
2018,09,17,14,39,17.10
2018,09,17,14,40,17.20
2018,09,17,14,41,17.20
2018,09,17,14,42,17.10
2018,09,17,14,43,16.90
2018,09,17,14,44,16.80
2018,09,17,14,45,16.80
2018,09,17,14,46,16.80
2018,09,17,14,47,16.80
2018,09,17,14,48,16.90
2018,09,17,14,49,17.00
2018,09,17,14,50,16.90
2018,09,17,14,51,16.90
2018,09,17,14,52,16.90
2018,09,17,14,53,16.80
2018,09,17,14,54,16.80
2018,09,17,14,55,16.90
2018,09,17,14,56,16.90
2018,09,17,14,57,16.90
2018,09,17,14,58,16.90
2018,09,17,14,59,16.90
2018,09,17,15,00,17.00
2018,09,17,15,01,17.10
2018,09,17,15,02,17.20
2018,09,17,15,03,17.10
2018,09,17,15,04,17.00
2018,09,17,15,05,17.00
2018,09,17,15,06,16.90
2018,09,17,15,07,16.90
2018,09,17,15,08,17.00
2018,09,17,15,09,17.10
2018,09,17,15,10,17.20
2018,09,17,15,11,17.30
2018,09,17,15,12,17.30
2018,09,17,15,13,17.30
2018,09,17,15,14,17.30
2018,09,17,15,15,17.30
2018,09,17,15,16,17.50
2018,09,17,15,17,17.60
2018,09,17,15,18,17.60
2018,09,17,15,19,17.70
2018,09,17,15,20,17.70
2018,09,17,15,21,17.80
2018,09,17,15,22,17.80
2018,09,17,15,23,17.90
2018,09,17,15,24,17.90
2018,09,17,15,25,17.80
2018,09,17,15,26,17.70
2018,09,17,15,27,17.70
2018,09,17,15,28,17.70
2018,09,17,15,29,17.70
2018,09,17,15,30,17.70
2018,09,17,15,31,17.70
2018,09,17,15,32,17.70
2018,09,17,15,33,17.70
2018,09,17,15,34,17.70
2018,09,17,15,35,17.80
2018,09,17,15,36,17.70
2018,09,17,15,37,17.70
2018,09,17,15,38,17.70
2018,09,17,15,39,17.70
2018,09,17,15,40,17.70
2018,09,17,15,41,17.70
2018,09,17,15,42,17.80
2018,09,17,15,43,17.80
2018,09,17,15,44,17.90
2018,09,17,15,45,17.80
2018,09,17,15,46,17.80
2018,09,17,15,47,17.80
2018,09,17,15,48,17.80
2018,09,17,15,49,17.90
2018,09,17,15,50,18.00
2018,09,17,15,51,18.00
2018,09,17,15,52,18.00
2018,09,17,15,53,18.10
2018,09,17,15,54,18.10
2018,09,17,15,55,18.00
2018,09,17,15,56,18.00
2018,09,17,15,57,18.00
2018,09,17,15,58,18.00
2018,09,17,15,59,17.90
2018,09,17,16,00,17.90
2018,09,17,16,01,17.90
2018,09,17,16,02,17.80
2018,09,17,16,03,17.70
2018,09,17,16,04,17.70
2018,09,17,16,05,17.60
2018,09,17,16,06,17.50
2018,09,17,16,07,17.40
2018,09,17,16,08,17.40
2018,09,17,16,09,17.30
2018,09,17,16,10,17.30
2018,09,17,16,11,17.30
2018,09,17,16,12,17.30
2018,09,17,16,13,17.40
2018,09,17,16,14,17.40
2018,09,17,16,15,17.30
2018,09,17,16,16,17.30
2018,09,17,16,17,17.30
2018,09,17,16,18,17.30
2018,09,17,16,19,17.30
2018,09,17,16,20,17.30
2018,09,17,16,21,17.30
2018,09,17,16,22,17.30
2018,09,17,16,23,17.20
2018,09,17,16,24,17.20
2018,09,17,16,25,17.20
2018,09,17,16,26,17.20
2018,09,17,16,27,17.30
2018,09,17,16,28,17.30
2018,09,17,16,29,17.30
2018,09,17,16,30,17.40
2018,09,17,16,31,17.30
2018,09,17,16,32,17.30
2018,09,17,16,33,17.30
2018,09,17,16,34,17.30
2018,09,17,16,35,17.40
2018,09,17,16,36,17.40
2018,09,17,16,37,17.50
2018,09,17,16,38,17.60
2018,09,17,16,39,17.60
2018,09,17,16,40,17.60
2018,09,17,16,41,17.60
2018,09,17,16,42,17.60
2018,09,17,16,43,17.70
2018,09,17,16,44,17.70
2018,09,17,16,45,17.70
2018,09,17,16,46,17.60
2018,09,17,16,47,17.60
2018,09,17,16,48,17.60
2018,09,17,16,49,17.50
2018,09,17,16,50,17.50
2018,09,17,16,51,17.40
2018,09,17,16,52,17.40
2018,09,17,16,53,17.30
2018,09,17,16,54,17.40
2018,09,17,16,55,17.40
2018,09,17,16,56,17.40
2018,09,17,16,57,17.40
2018,09,17,16,58,17.30
2018,09,17,16,59,17.30
2018,09,17,17,00,17.30
2018,09,17,17,01,17.30
2018,09,17,17,02,17.40
2018,09,17,17,03,17.40
2018,09,17,17,04,17.40
2018,09,17,17,05,17.50
2018,09,17,17,06,17.50
2018,09,17,17,07,17.50
2018,09,17,17,08,17.50
2018,09,17,17,09,17.60
2018,09,17,17,10,17.70
2018,09,17,17,11,17.70
2018,09,17,17,12,17.70
2018,09,17,17,13,17.60
2018,09,17,17,14,17.60
2018,09,17,17,15,17.60
2018,09,17,17,16,17.70
2018,09,17,17,17,17.70
2018,09,17,17,18,17.80
2018,09,17,17,19,17.80
2018,09,17,17,20,17.80
2018,09,17,17,21,17.90
2018,09,17,17,22,17.90
2018,09,17,17,23,18.00
2018,09,17,17,24,18.00
2018,09,17,17,25,18.00
2018,09,17,17,26,18.00
2018,09,17,17,27,17.90
2018,09,17,17,28,17.90
2018,09,17,17,29,17.90
2018,09,17,17,30,17.90
2018,09,17,17,31,17.90
2018,09,17,17,32,17.90
2018,09,17,17,33,17.90
2018,09,17,17,34,17.90
2018,09,17,17,35,17.90
2018,09,17,17,36,17.90
2018,09,17,17,37,17.90
2018,09,17,17,38,17.90
2018,09,17,17,39,17.90